When you browse on this site, cookies collect data to enhance your experience and personalize the content and advertising you see.
Visit our Privacy Policy to learn more. By continuing to use the site, you agree to this use of cookies and data.
  • In Lithuania
  • List of Countries
  • For 7 days
  • Water Temperature
  • Satellite Maps
  • Weather Map
  • Weather Widgets
  • user-avatar
    Login

    Hourly Weather Privolnyy

    Today, 23 March, Saturday

    Time Temperature Precipitation Wind Pressure Humidity
    00:00 +3°C° 0.7 mm 9 mps 755 mmHg 83%
    01:00 +4°C° 0.4 mm 8 mps 755 mmHg 80%
    02:00 +4°C° 0.4 mm 7 mps 755 mmHg 78%
    03:00 +3°C° 0 mm 6 mps 754 mmHg 73%
    04:00 +2°C° 0 mm 6 mps 754 mmHg 73%
    05:00 +1°C° 0 mm 6 mps 755 mmHg 74%
    06:00 0°C° 0 mm 5 mps 755 mmHg 74%
    07:00 +1°C° 0 mm 6 mps 755 mmHg 69%
    08:00 +1°C° 0 mm 6 mps 756 mmHg 64%
    09:00 +2°C° 0 mm 7 mps 756 mmHg 59%
    10:00 +3°C° 0 mm 7 mps 756 mmHg 55%
    11:00 +3°C° 0 mm 7 mps 756 mmHg 51%
    12:00 +4°C° 0 mm 6 mps 756 mmHg 46%
    13:00 +4°C° 0 mm 6 mps 756 mmHg 47%
    14:00 +4°C° 0 mm 6 mps 756 mmHg 48%
    15:00 +5°C° 0 mm 6 mps 756 mmHg 49%
    16:00 +4°C° 0.1 mm 6 mps 756 mmHg 53%
    17:00 +5°C° 0.1 mm 5 mps 756 mmHg 58%
    18:00 +3°C° 0.1 mm 5 mps 756 mmHg 62%
    19:00 +3°C° 0.1 mm 5 mps 757 mmHg 67%
    20:00 +3°C° 0.1 mm 4 mps 757 mmHg 72%
    21:00 +3°C° 0.1 mm 4 mps 757 mmHg 77%
    22:00 +1°C° 0.1 mm 4 mps 757 mmHg 79%
    23:00 +1°C° 0.1 mm 4 mps 758 mmHg 81%

    Tomorrow, 24 March, Sunday

    Time Temperature Precipitation Wind Pressure Humidity
    00:00 +1°C° 0.1 mm 4 mps 758 mmHg 82%
    01:00 +1°C° 0.2 mm 4 mps 758 mmHg 83%
    02:00 +1°C° 0.2 mm 4 mps 758 mmHg 84%
    03:00 +1°C° 0.2 mm 4 mps 758 mmHg 84%
    04:00 0°C° 0.1 mm 4 mps 758 mmHg 85%
    05:00 0°C° 0.1 mm 4 mps 758 mmHg 85%
    06:00 0°C° 0.1 mm 4 mps 759 mmHg 86%
    07:00 0°C° 0 mm 4 mps 759 mmHg 83%
    08:00 +1°C° 0 mm 4 mps 759 mmHg 80%
    09:00 +1°C° 0 mm 4 mps 760 mmHg 77%
    10:00 +1°C° 0 mm 4 mps 760 mmHg 74%
    11:00 +3°C° 0 mm 4 mps 760 mmHg 71%
    12:00 +4°C° 0 mm 4 mps 760 mmHg 68%
    13:00 +4°C° 0.1 mm 4 mps 760 mmHg 67%
    14:00 +3°C° 0.1 mm 5 mps 760 mmHg 65%
    15:00 +5°C° 0.1 mm 5 mps 760 mmHg 63%
    16:00 +3°C° 0 mm 5 mps 760 mmHg 63%
    17:00 +3°C° 0 mm 5 mps 760 mmHg 64%
    18:00 +4°C° 0 mm 4 mps 760 mmHg 64%
    19:00 +4°C° 0 mm 4 mps 760 mmHg 67%
    20:00 +3°C° 0 mm 4 mps 760 mmHg 69%
    21:00 +3°C° 0 mm 3 mps 761 mmHg 72%
    22:00 +2°C° 0 mm 3 mps 760 mmHg 73%
    23:00 +2°C° 0 mm 3 mps 760 mmHg 75%

    Day after tomorrow, 25 March, Monday

    Time Temperature Precipitation Wind Pressure Humidity
    00:00 +2°C° 0 mm 3 mps 760 mmHg 76%
    01:00 +1°C° 0 mm 3 mps 760 mmHg 79%
    02:00 +1°C° 0 mm 3 mps 760 mmHg 82%
    03:00 0°C° 0 mm 4 mps 760 mmHg 85%
    04:00 +1°C° 0 mm 3 mps 760 mmHg 85%
    05:00 +1°C° 0 mm 3 mps 759 mmHg 86%
    06:00 +1°C° 0 mm 3 mps 759 mmHg 86%
    07:00 +2°C° 0 mm 3 mps 759 mmHg 81%
    08:00 +3°C° 0 mm 3 mps 760 mmHg 76%
    09:00 +4°C° 0 mm 3 mps 760 mmHg 71%
    10:00 +7°C° 0 mm 3 mps 760 mmHg 66%
    11:00 +8°C° 0 mm 3 mps 760 mmHg 61%
    12:00 +9°C° 0 mm 3 mps 759 mmHg 55%
    13:00 +9°C° 0 mm 3 mps 759 mmHg 54%
    14:00 +9°C° 0 mm 3 mps 759 mmHg 53%
    15:00 +9°C° 0 mm 3 mps 759 mmHg 52%
    16:00 +9°C° 0 mm 2 mps 759 mmHg 54%
    17:00 +10°C° 0 mm 1 mps 759 mmHg 56%
    18:00 +10°C° 0 mm 1 mps 759 mmHg 58%
    19:00 +9°C° 0 mm 1 mps 759 mmHg 59%
    20:00 +9°C° 0 mm 1 mps 759 mmHg 60%
    21:00 +8°C° 0 mm 1 mps 760 mmHg 61%
    22:00 +8°C° 0 mm 1 mps 760 mmHg 64%
    23:00 +7°C° 0 mm 1 mps 760 mmHg 66%

    26 March, Tuesday

    Time Temperature Precipitation Wind Pressure Humidity
    00:00 +7°C° 0 mm 1 mps 759 mmHg 68%
    01:00 +7°C° 0 mm 1 mps 759 mmHg 70%
    02:00 +6°C° 0 mm 1 mps 760 mmHg 72%
    03:00 +6°C° 0 mm 1 mps 760 mmHg 73%
    04:00 +5°C° 0 mm 1 mps 760 mmHg 76%
    05:00 +5°C° 0 mm 1 mps 760 mmHg 78%
    06:00 +4°C° 0 mm 2 mps 760 mmHg 81%
    07:00 +5°C° 0 mm 2 mps 760 mmHg 77%
    08:00 +5°C° 0 mm 3 mps 760 mmHg 72%
    09:00 +6°C° 0 mm 4 mps 760 mmHg 68%
    10:00 +8°C° 0 mm 4 mps 760 mmHg 62%
    11:00 +10°C° 0 mm 4 mps 760 mmHg 56%
    12:00 +11°C° 0 mm 4 mps 759 mmHg 50%
    13:00 +12°C° 0 mm 4 mps 759 mmHg 48%
    14:00 +13°C° 0 mm 4 mps 759 mmHg 46%
    15:00 +13°C° 0 mm 4 mps 758 mmHg 44%
    16:00 +13°C° 0 mm 3 mps 758 mmHg 46%
    17:00 +12°C° 0 mm 3 mps 757 mmHg 49%
    18:00 +13°C° 0 mm 2 mps 757 mmHg 52%
    19:00 +12°C° 0 mm 2 mps 757 mmHg 55%
    20:00 +10°C° 0 mm 2 mps 757 mmHg 58%
    21:00 +10°C° 0 mm 2 mps 757 mmHg 60%
    22:00 +9°C° 0 mm 3 mps 757 mmHg 62%
    23:00 +8°C° 0 mm 3 mps 756 mmHg 64%

    27 March, Wednesday

    Time Temperature Precipitation Wind Pressure Humidity
    00:00 +8°C° 0 mm 3 mps 756 mmHg 66%
    01:00 +7°C° 0 mm 3 mps 756 mmHg 69%
    02:00 +7°C° 0 mm 3 mps 756 mmHg 72%
    03:00 +6°C° 0 mm 4 mps 756 mmHg 75%
    04:00 +7°C° 0.1 mm 3 mps 757 mmHg 76%
    05:00 +7°C° 0.1 mm 3 mps 757 mmHg 76%
    06:00 +7°C° 0.1 mm 2 mps 757 mmHg 77%
    07:00 +6°C° 0 mm 4 mps 758 mmHg 72%
    08:00 +6°C° 0 mm 5 mps 759 mmHg 67%
    09:00 +5°C° 0 mm 6 mps 759 mmHg 61%
    10:00 +5°C° 0 mm 6 mps 760 mmHg 52%
    11:00 +7°C° 0 mm 6 mps 760 mmHg 43%
    12:00 +7°C° 0 mm 5 mps 760 mmHg 33%
    13:00 +8°C° 0 mm 5 mps 760 mmHg 32%
    14:00 +8°C° 0 mm 5 mps 760 mmHg 30%
    15:00 +10°C° 0 mm 4 mps 761 mmHg 29%
    16:00 +8°C° 0 mm 4 mps 761 mmHg 30%
    17:00 +8°C° 0 mm 4 mps 761 mmHg 31%
    18:00 +7°C° 0 mm 4 mps 761 mmHg 32%
    19:00 +8°C° 0 mm 3 mps 762 mmHg 36%
    20:00 +7°C° 0 mm 3 mps 762 mmHg 40%
    21:00 +5°C° 0 mm 3 mps 762 mmHg 43%
    22:00 +4°C° 0 mm 3 mps 762 mmHg 48%
    23:00 +4°C° 0 mm 3 mps 762 mmHg 53%

    28 March, Thursday

    Time Temperature Precipitation Wind Pressure Humidity
    00:00 +3°C° 0 mm 3 mps 763 mmHg 58%
    01:00 +3°C° 0 mm 3 mps 763 mmHg 62%
    02:00 +2°C° 0 mm 3 mps 763 mmHg 65%
    03:00 +2°C° 0 mm 3 mps 763 mmHg 69%
    04:00 +1°C° 0 mm 3 mps 764 mmHg 69%
    05:00 +1°C° 0 mm 3 mps 764 mmHg 69%
    06:00 0°C° 0 mm 3 mps 764 mmHg 69%
    07:00 +1°C° 0 mm 3 mps 765 mmHg 61%
    08:00 +1°C° 0 mm 4 mps 765 mmHg 52%
    09:00 +3°C° 0 mm 4 mps 765 mmHg 44%
    10:00 +4°C° 0 mm 4 mps 765 mmHg 44%
    11:00 +5°C° 0 mm 4 mps 765 mmHg 44%
    12:00 +6°C° 0 mm 5 mps 765 mmHg 44%
    13:00 +6°C° 0 mm 5 mps 765 mmHg 46%
    14:00 +6°C° 0 mm 5 mps 765 mmHg 48%
    15:00 +6°C° 0 mm 5 mps 765 mmHg 50%
    16:00 +6°C° 0 mm 5 mps 765 mmHg 51%
    17:00 +5°C° 0 mm 4 mps 765 mmHg 51%
    18:00 +5°C° 0 mm 4 mps 766 mmHg 52%
    19:00 +4°C° 0 mm 4 mps 766 mmHg 55%
    20:00 +3°C° 0 mm 3 mps 766 mmHg 58%
    21:00 +3°C° 0 mm 3 mps 767 mmHg 61%
    22:00 +3°C° 0 mm 2 mps 767 mmHg 62%
    23:00 +3°C° 0 mm 2 mps 767 mmHg 62%
    Show more